Pagrindinis puslapis
METAR-TAF:

METAR-TAF

Oro uostai :

Hemphill County Airport

Canadian, Teksasas, Jungtinės Amerikos Valstijos

platuma: 35-54N, ilguma: 100-24W, Aukštis: 730 m

Dabartinis oras

Ataskaita buvo paskelbta 29 minutes, ne 09:55 UTC
Ramus vėjas
Temperatūra 12°C
Drėgmė 54%
Slėgis 1022 hPa
Matomumas: 16.1 km
Giedras dangus

METAR: KHHF 020955Z AUTO 00000KT 10SM CLR 12/03 A3018 RMK AO2 T01230029

Laikas: 05:24 (10:24 UTC)


TAF: trūkstamas

Orai ataskaitas ir orų prognozės (METAR, TAF).

turimą stotys yra geltonos ir raudonos taškus žemėlapyje.

Perkelti pele per norėdami pamatyti stoties vardą.

Tada spustelėkite, norėdami matyti oro stebėjimo ir prognozės.

Norėdami pakeisti žemėlapį: spustelėkite ant žalios mygtukų su juodo kryžiaus žemyn,; žalią mygtuką su brūkšneliu, jei norite nutolinti; arba žalių rodyklių gretimoms žemėlapius.


METAR-TAF: